FW5436 Weather Reports


Display with metric or nautical units.
time (UTC)temp
F
wind
direction
speed
MPH
gust
MPH
rain 1hr
in
rain 24hr
in
rain mn
in
humidity
%
barometer
mb
20260509083627 48 45 4.0 11.0 0.01 0.01 0.01 95 1002.3
20260509083117 48 68 4.0 11.0 0.01 0.01 0.01 95 1002.2
20260509082607 48 45 4.0 13.0 0.01 0.01 0.01 95 1002.2
20260509082057 48 45 4.0 15.0 0.01 0.01 0.01 95 1002.0
20260509081546 48 23 4.0 15.0 0.01 0.01 0.01 95 1001.9
20260509080526 47 45 4.0 11.0 0.00 0.00 0.00 95 1002.0
20260509080016 47 68 4.0 14.0 0.00 0.00 0.00 95 1001.8
20260509075507 47 45 4.0 14.0 0.00 0.00 0.00 95 1001.8
20260509074955 47 68 2.0 11.0 0.00 0.00 0.00 94 1001.8
20260509074447 47 90 4.0 13.0 0.00 0.00 0.00 94 1001.8
20260509073936 47 45 4.0 13.0 0.00 0.00 0.00 94 1001.6
20260509072915 47 23 7.0 14.0 0.00 0.00 0.00 93 1001.8
20260509071855 46 68 2.0 13.0 0.00 0.00 0.00 93 1001.6
20260509071346 46 68 4.0 13.0 0.00 0.00 0.00 93 1001.6
20260509070834 46 68 3.0 14.0 0.00 0.00 0.00 93 1001.4
20260509065306 46 23 3.0 16.0 0.00 0.00 0.00 93 1001.4
20260509064754 46 0 3.0 14.0 0.00 0.00 0.00 92 1001.7
20260509064243 46 68 7.0 16.0 0.00 0.00 0.00 92 1001.6
20260509062714 46 23 3.0 15.0 0.00 0.00 0.00 92 1001.5
20260509062203 46 45 7.0 15.0 0.00 0.00 0.00 91 1001.7
20260509061654 46 23 4.0 15.0 0.00 0.00 0.00 91 1001.6
20260509061143 46 45 4.0 15.0 0.00 0.00 0.00 91 1001.7
20260509060633 46 68 7.0 14.0 0.00 0.00 0.00 91 1001.6
20260509060122 46 90 7.0 14.0 0.00 0.00 0.00 91 1001.6
20260509055614 46 68 4.0 16.0 0.00 0.00 0.00 92 1001.8
20260509055102 46 68 4.0 16.0 0.00 0.00 0.00 92 1001.6
20260509054042 46 68 5.0 15.0 0.00 0.00 0.00 91 1001.7
20260509053538 46 23 5.0 0.0 0.00 0.00 0.00 91 1001.9
20260509052617 46 45 2.0 11.0 0.00 0.33 0.00 91 1001.7
20260509052106 46 23 4.0 14.0 0.00 0.33 0.00 91 1001.7
20260509051603 46 90 4.0 14.0 0.00 0.33 0.00 91 1001.6
20260509051045 46 338 7.0 17.0 0.00 0.33 0.00 91 1001.5
20260509050537 46 68 4.0 17.0 0.00 0.33 0.00 91 1001.4
20260509045516 45 68 4.0 15.0 0.00 0.33 0.00 91 1001.4
20260509044455 45 45 5.0 13.0 0.00 0.33 0.00 90 1001.3
20260509043944 45 45 5.0 15.0 0.00 0.33 0.00 90 1001.4
20260509043435 45 23 4.0 15.0 0.00 0.33 0.00 90 1001.4
20260509042924 45 45 5.0 13.0 0.00 0.33 0.00 89 1001.1
20260509042414 45 45 3.0 11.0 0.00 0.33 0.00 89 1001.2
20260509041904 45 338 6.0 11.0 0.00 0.33 0.00 89 1001.2
20260509041354 45 90 4.0 11.0 0.00 0.33 0.00 89 1001.2
20260509040844 45 90 4.0 13.0 0.00 0.33 0.00 89 1001.2
20260509040333 45 68 7.0 16.0 0.00 0.33 0.00 89 1001.1
20260509035824 45 68 4.0 16.0 0.00 0.33 0.00 89 1000.9
20260509035313 45 90 6.0 13.0 0.00 0.33 0.00 89 1000.9
20260509034808 45 23 6.0 13.0 0.00 0.33 0.00 88 1000.9
20260509034253 45 45 6.0 13.0 0.00 0.33 0.00 88 1000.9
20260509033233 45 90 4.0 15.0 0.00 0.33 0.00 88 1000.8
20260509032213 46 68 5.0 13.0 0.00 0.33 0.00 88 1000.7
20260509031703 46 315 7.0 15.0 0.00 0.33 0.00 87 1000.7
20260509031153 46 90 6.0 15.0 0.00 0.33 0.00 87 1000.7
20260509030643 46 23 5.0 11.0 0.00 0.33 0.00 86 1000.6
20260509030132 46 0 7.0 11.0 0.00 0.33 0.00 86 1000.6
20260509025622 46 68 6.0 11.0 0.00 0.33 0.54 86 1000.7
20260509025111 46 158 6.0 16.0 0.00 0.33 0.54 85 1000.6
20260509024052 47 45 6.0 17.0 0.00 0.33 0.54 85 1000.5
20260509023542 47 23 4.0 17.0 0.00 0.33 0.54 85 1000.7
20260509023031 47 23 6.0 14.0 0.00 0.33 0.54 85 1000.5
20260509022521 47 23 4.0 18.0 0.00 0.33 0.54 85 1000.7
20260509022011 47 45 8.0 18.0 0.00 0.33 0.54 84 1000.4
20260509021501 47 68 6.0 13.0 0.00 0.33 0.54 84 1000.5
20260509020951 47 45 5.0 18.0 0.00 0.33 0.54 83 1000.4
20260509020440 47 23 8.0 18.0 0.00 0.33 0.54 83 1000.4
20260509015930 47 45 4.0 16.0 0.00 0.33 0.54 83 1000.6
20260509015421 47 180 3.0 11.0 0.00 0.33 0.54 83 1000.6
20260509014910 47 68 4.0 13.0 0.00 0.33 0.54 83 1000.3
20260509014400 47 45 7.0 13.0 0.00 0.33 0.54 83 1000.2
20260509013851 48 68 4.0 13.0 0.00 0.33 0.54 84 1000.4
20260509013344 48 68 4.0 13.0 0.00 0.33 0.54 84 1000.3
20260509012829 48 0 4.0 11.0 0.00 0.33 0.54 85 1000.1
20260509012320 48 0 4.0 11.0 0.00 0.33 0.54 85 1000.2
20260509011810 48 0 3.0 14.0 0.00 0.33 0.54 85 1000.1
20260509011259 48 45 4.0 14.0 0.00 0.33 0.54 85 1000.2
20260509010749 48 68 4.0 14.0 0.00 0.33 0.54 85 1000.3
20260509005728 48 23 7.0 14.0 0.00 0.33 0.54 84 1000.2
20260509005219 48 23 4.0 15.0 0.00 0.33 0.54 84 1000.2
20260509004708 48 270 8.0 15.0 0.00 0.33 0.54 84 1000.1
20260509004159 48 68 6.0 15.0 0.00 0.33 0.54 84 1000.0
20260509003648 47 45 6.0 15.0 0.00 0.33 0.54 85 999.8
20260509003138 47 90 6.0 14.0 0.00 0.33 0.54 86 999.8
20260509002118 47 45 5.0 18.0 0.00 0.33 0.54 87 999.7
20260509001608 47 45 6.0 18.0 0.00 0.33 0.54 87 999.8
20260509001058 47 90 7.0 17.0 0.00 0.33 0.54 88 999.9
20260509000552 47 68 4.0 17.0 0.00 0.33 0.54 88 999.9
20260509000037 47 90 4.0 17.0 0.00 0.33 0.54 88 999.9
20260508235528 47 23 5.0 17.0 0.00 0.33 0.54 88 999.8
20260508235017 47 23 4.0 16.0 0.00 0.33 0.54 89 999.5
20260508234507 47 45 6.0 16.0 0.00 0.33 0.54 89 999.4
20260508233447 47 225 5.0 15.0 0.00 0.33 0.54 89 999.4
20260508232937 47 45 5.0 15.0 0.00 0.33 0.54 90 999.5
20260508231916 47 45 6.0 11.0 0.00 0.33 0.54 92 999.6
20260508230856 47 90 5.0 13.0 0.00 0.33 0.54 92 999.6
20260508230346 47 68 7.0 13.0 0.00 0.33 0.54 92 999.5
20260508225325 47 45 7.0 17.0 0.00 0.33 0.54 92 999.5
20260508224815 47 45 7.0 17.0 0.00 0.33 0.54 92 999.3
20260508224306 47 68 8.0 16.0 0.00 0.33 0.54 92 999.3
20260508223755 47 68 5.0 13.0 0.00 0.33 0.54 92 999.3
20260508223245 47 45 4.0 17.0 0.00 0.33 0.54 92 999.1
20260508222734 47 90 7.0 17.0 0.00 0.33 0.54 92 999.0
20260508222224 46 68 8.0 17.0 0.00 0.33 0.54 92 998.9
20260508221715 46 90 8.0 17.0 0.00 0.33 0.54 93 999.0
20260508221204 46 135 6.0 15.0 0.00 0.33 0.54 93 998.7
20260508220144 46 68 4.0 15.0 0.00 0.33 0.54 92 998.6
20260508215634 47 45 4.0 15.0 0.00 0.33 0.54 92 998.6
20260508215123 47 23 2.0 11.0 0.00 0.33 0.54 92 998.3
20260508214614 47 225 4.0 14.0 0.00 0.33 0.54 92 998.5
20260508214103 47 68 7.0 14.0 0.00 0.33 0.54 92 998.3
20260508213553 47 90 6.0 13.0 0.00 0.33 0.54 92 998.1
20260508213043 47 23 4.0 13.0 0.00 0.33 0.54 92 998.0
20260508212023 47 68 4.0 15.0 0.00 0.33 0.54 92 998.0
20260508211513 47 0 6.0 16.0 0.00 0.33 0.54 92 997.9
20260508211002 47 90 4.0 16.0 0.00 0.33 0.54 92 997.8
20260508210453 47 90 7.0 16.0 0.00 0.33 0.54 91 997.8
20260508205942 47 68 5.0 16.0 0.00 0.33 0.54 91 997.6
20260508205433 47 90 6.0 16.0 0.00 0.33 0.54 91 997.7
20260508203901 47 23 5.0 16.0 0.00 0.33 0.54 92 997.6
20260508203352 48 338 6.0 16.0 0.00 0.33 0.54 92 997.6
20260508202841 48 68 4.0 13.0 0.00 0.33 0.54 92 997.4
20260508202336 48 135 4.0 20.0 0.00 0.33 0.54 92 997.5
20260508201821 48 45 5.0 20.0 0.00 0.33 0.54 93 997.3
20260508201311 47 23 4.0 13.0 0.00 0.33 0.54 93 997.3
20260508200250 47 90 5.0 16.0 0.00 0.33 0.54 94 997.0
20260508195230 48 23 4.0 13.0 0.00 0.33 0.54 95 997.0
20260508194720 48 68 5.0 11.0 0.00 0.33 0.54 95 996.8
20260508194210 48 23 3.0 17.0 0.00 0.33 0.54 95 996.8
20260508193659 48 45 4.0 17.0 0.00 0.33 0.54 95 996.8
20260508193149 48 23 6.0 14.0 0.01 0.33 0.54 96 996.7
20260508191619 49 0 5.0 14.0 0.01 0.33 0.54 96 996.4
20260508191109 49 90 5.0 20.0 0.01 0.33 0.54 96 996.4
20260508190559 49 45 6.0 20.0 0.01 0.33 0.54 96 996.5
20260508190049 49 68 6.0 16.0 0.01 0.33 0.54 97 996.3
20260508185539 49 45 6.0 14.0 0.01 0.33 0.54 97 996.3
20260508185028 49 68 5.0 14.0 0.01 0.33 0.54 96 996.2
20260508184519 49 68 4.0 14.0 0.02 0.33 0.54 97 996.2
20260508184008 49 90 6.0 11.0 0.02 0.33 0.54 96 996.0
20260508183458 49 113 5.0 15.0 0.04 0.33 0.54 96 996.1
20260508182949 49 68 5.0 15.0 0.02 0.32 0.53 96 996.1
20260508182437 50 293 5.0 13.0 0.02 0.32 0.53 96 996.1
20260508181933 50 45 4.0 15.0 0.02 0.32 0.53 96 996.2
20260508181418 50 68 4.0 15.0 0.02 0.32 0.53 96 995.9
20260508180907 50 90 5.0 16.0 0.02 0.32 0.53 96 995.8
20260508180358 50 68 5.0 16.0 0.02 0.32 0.53 96 995.6
20260508175847 50 338 4.0 16.0 0.02 0.32 0.53 96 995.4
20260508175337 50 23 5.0 16.0 0.02 0.32 0.53 96 995.4
20260508174827 50 293 5.0 11.0 0.01 0.31 0.52 96 995.4
20260508174316 50 68 5.0 11.0 0.01 0.31 0.52 96 995.5
20260508173807 50 23 6.0 11.0 0.01 0.31 0.52 96 995.3
20260508173257 50 23 4.0 13.0 0.01 0.30 0.51 97 995.2
20260508172746 50 68 4.0 13.0 0.01 0.30 0.51 97 995.1
20260508171726 50 90 6.0 14.0 0.02 0.30 0.51 97 995.1
20260508171216 50 90 3.0 17.0 0.02 0.30 0.51 97 995.2
20260508170706 50 338 6.0 17.0 0.02 0.30 0.51 97 995.3
20260508170156 50 45 8.0 16.0 0.04 0.30 0.51 97 995.1
20260508165646 50 45 3.0 13.0 0.04 0.30 0.51 97 995.2
20260508165136 50 135 7.0 15.0 0.04 0.30 0.51 97 995.0
20260508164625 50 113 5.0 17.0 0.04 0.30 0.51 97 995.0
20260508164120 50 68 5.0 17.0 0.04 0.30 0.51 97 994.8
20260508163605 50 90 4.0 13.0 0.02 0.28 0.51 97 994.7
20260508163054 50 68 4.0 11.0 0.02 0.28 0.50 97 994.8
20260508162034 50 68 5.0 15.0 0.02 0.27 0.48 96 994.8
20260508161524 50 248 5.0 15.0 0.02 0.27 0.48 97 994.7
20260508161014 50 45 5.0 15.0 0.02 0.27 0.48 96 995.0
20260508160504 50 68 5.0 15.0 0.02 0.27 0.48 96 994.8
20260508155954 50 45 4.0 14.0 0.01 0.26 0.47 96 994.8
20260508154934 50 23 4.0 17.0 0.01 0.26 0.47 96 994.8
20260508154423 50 45 5.0 17.0 0.01 0.26 0.47 96 994.9
20260508153914 50 0 5.0 13.0 0.01 0.26 0.47 96 995.1
20260508153403 50 23 5.0 17.0 0.01 0.26 0.47 96 995.0
20260508152344 50 90 5.0 17.0 0.00 0.25 0.46 96 995.0
20260508151832 50 113 5.0 13.0 0.00 0.25 0.46 96 994.9
20260508151322 50 90 4.0 14.0 0.00 0.25 0.46 96 994.7
20260508150813 50 203 4.0 14.0 0.00 0.25 0.46 96 994.9
20260508150302 50 45 7.0 20.0 0.00 0.25 0.46 96 994.7
20260508145753 50 45 5.0 20.0 0.00 0.25 0.46 96 994.8
20260508145242 50 45 4.0 15.0 0.00 0.25 0.46 96 994.6
20260508144731 50 90 4.0 15.0 0.00 0.25 0.46 96 994.6
20260508144221 51 225 7.0 13.0 0.00 0.25 0.46 96 994.8
20260508143712 50 23 6.0 14.0 0.00 0.25 0.46 96 994.6
20260508143201 50 45 5.0 14.0 0.00 0.25 0.46 96 994.2
20260508141121 50 45 5.0 13.0 0.00 0.25 0.46 97 994.7
20260508140612 50 45 6.0 13.0 0.00 0.25 0.46 97 994.8
20260508135550 50 68 4.0 11.0 0.00 0.25 0.46 97 994.5
20260508135040 50 45 4.0 11.0 0.00 0.25 0.46 97 994.5
20260508134529 50 45 5.0 11.0 0.00 0.25 0.46 97 994.5
20260508134020 50 68 4.0 13.0 0.00 0.25 0.46 97 994.4
20260508133509 50 68 4.0 13.0 0.00 0.25 0.46 97 994.6
20260508132449 50 45 4.0 13.0 0.00 0.25 0.46 98 994.3
20260508131939 50 45 5.0 11.0 0.00 0.25 0.46 98 994.1
20260508131430 50 45 4.0 11.0 0.00 0.25 0.46 98 994.2
20260508130409 50 68 4.0 14.0 0.01 0.25 0.46 98 994.0
20260508125903 50 135 4.0 13.0 0.01 0.25 0.46 98 994.2
20260508125349 50 338 5.0 14.0 0.01 0.25 0.46 98 994.2
20260508124839 50 90 4.0 14.0 0.01 0.25 0.46 98 993.9
20260508124328 50 90 5.0 13.0 0.01 0.25 0.46 98 993.9
20260508123818 50 338 5.0 11.0 0.01 0.25 0.46 98 993.9
20260508123309 50 45 6.0 11.0 0.01 0.25 0.46 98 994.0
20260508121737 50 45 4.0 11.0 0.02 0.25 0.46 98 993.5
20260508121228 50 23 7.0 13.0 0.02 0.25 0.46 98 993.5
20260508120718 50 45 4.0 13.0 0.02 0.25 0.46 98 993.4
20260508120207 50 0 4.0 11.0 0.01 0.24 0.45 98 993.6
20260508115147 50 90 3.0 11.0 0.01 0.24 0.45 98 993.5
20260508114637 50 23 4.0 13.0 0.01 0.24 0.45 98 993.3
20260508114127 50 45 5.0 13.0 0.01 0.24 0.45 98 993.4
20260508113616 50 45 5.0 11.0 0.01 0.24 0.45 98 993.4
20260508113107 50 45 6.0 11.0 0.02 0.24 0.45 98 993.4
20260508112556 50 0 6.0 11.0 0.01 0.22 0.44 98 993.4
20260508112046 50 45 5.0 11.0 0.01 0.22 0.44 98 993.2
20260508111536 50 68 4.0 13.0 0.01 0.22 0.44 98 993.3
20260508111026 50 68 3.0 13.0 0.01 0.22 0.44 98 993.3
20260508110515 50 113 4.0 11.0 0.01 0.22 0.44 98 993.2
20260508110006 50 45 4.0 11.0 0.01 0.22 0.44 98 993.1
20260508104945 50 270 3.0 9.0 0.01 0.22 0.44 98 992.9
20260508104435 50 45 4.0 9.0 0.02 0.22 0.44 98 992.9
20260508103414 50 68 2.0 9.0 0.04 0.22 0.44 98 992.8
20260508102905 50 68 4.0 11.0 0.02 0.21 0.43 98 992.6
20260508102354 51 45 4.0 11.0 0.02 0.21 0.43 98 992.9
20260508101843 51 45 4.0 11.0 0.04 0.21 0.43 98 992.9
20260508101334 51 68 2.0 9.0 0.05 0.21 0.43 98 992.8
20260508100315 51 0 2.0 7.0 0.06 0.21 0.43 98 992.6
20260508095803 51 90 4.0 8.0 0.07 0.21 0.43 98 992.7
20260508095254 51 90 2.0 8.0 0.07 0.21 0.43 98 992.6
20260508094743 51 90 2.0 8.0 0.07 0.21 0.43 98 992.6
20260508094233 51 68 4.0 11.0 0.06 0.20 0.41 98 992.8
20260508093723 51 68 2.0 11.0 0.06 0.20 0.41 98 992.7
20260508092705 51 68 3.0 8.0 0.05 0.19 0.40 97 992.6
20260508092153 51 45 3.0 8.0 0.04 0.18 0.39 97 992.8
20260508091648 51 180 2.0 11.0 0.02 0.17 0.38 97 992.7
20260508091132 51 45 3.0 11.0 0.02 0.17 0.38 97 992.7
20260508090112 51 45 2.0 7.0 0.00 0.14 0.35 97 992.7
20260508085603 51 0 2.0 7.0 0.00 0.14 0.35 97 992.7
20260508085052 51 45 3.0 8.0 0.00 0.14 0.35 97 992.8
20260508084541 51 68 3.0 11.0 0.00 0.14 0.35 97 992.8